User: anonymous   Login
Location: Unspecified
(0.0000°N, 0.0000°E)
Time: 00:51:57
(UTC+00:00)
Language:

RCM-1 - Orbit

View from above orbital plane
View from above orbital plane
View from above satellite
View from above satellite

Ground track
Ground track

The orbit is defined by the following mean orbital elements,

1 44322U          26145.54239970 +.00000000 +00000-0 +10793-5 0 00000
2 44322  97.7594 153.3065 0001453  90.1290 270.0096 14.92588461    07
Epoch (UTC): 25 May 2026 13:01:03
Eccentricity: 0.0001453
inclination: 97.7594°
perigee height: 589 km
apogee height: 591 km
right ascension of ascending node: 153.3065°
argument of perigee: 90.1290°
revolutions per day: 14.92588461
mean anomaly at epoch: 270.0096°

The dashed part of the orbit path shows where the satellite is in the earth's shadow,  

DLR